FM-5

Last updated on Fri Nov 07 2025 00:02:48 GMT+0000 (Coordinated Universal Time)

1 35493U 09034A 25310.15976558 -.00000190 00000+0 00000+0 0 9996 2 35493 0.0151 272.9430 0000265 266.0206 198.0661 1.00269342 44405
UTC large
Height (km)
Speed (km/s)
/
Latitude / Longitude
Inclination (degrees)
Orbital Period (minutes)
Azimuth
Elevation
Range (km)
Doppler Factor

Next 0 passes for location: London (51.5072 / 0.1276)

Sorry there are no passes over London.